User: anonymous   Login
Location: Unspecified
(0.0000°N, 0.0000°E)
Time: 12:57:32
(UTC+00:00)
Language:

PLEIADES 1B - Orbit

View from above orbital plane
View from above orbital plane
View from above satellite
View from above satellite

Ground track
Ground track

The orbit data is extracted from the following two-line orbital elements,

1 39019U 12068A   14303.13237234  .00000907  00000-0  20494-3 0  2109
2 39019 098.1865 016.2068 0001503 082.5730 277.5666 14.58527493101625
Epoch (UTC): 30 October 2014 03:10:36
Eccentricity: 0.0001503
inclination: 98.1865°
perigee height: 697 km
apogee height: 699 km
right ascension of ascending node: 16.2068°
argument of perigee: 82.5730°
revolutions per day: 14.58527493
mean anomaly at epoch: 277.5666°
orbit number at epoch: 10162

The dashed part of the orbit path shows where the satellite is in the earth's shadow,  

DLR